STARLINK-31958, 59924

Orbit data source: Space-Track

STARLINK-31958, 59924 is a payload satellite owned by SpaceX/Seattle (US) in LEO that was launched on Sat, 01 Jun 2024 UTC via an FALCON 9 launch vehicle from the Air Force Eastern Test Range (AFETR). Payload-class satellites include a variety of spacecraft equipped with specific instruments for various scientific and technological missions. These include communications satellites like Starlink; space stations such as the ISS; scientific satellites like the Hubble; Earth observation satellites from companies like Planet Labs, Umbra, and HawkEye 360; GPS; miniature CubeSats for education and research; and military/defense satellites.

Loading next visibility...
Identifier
59924, 2024-106C
Orbit
LEO
Last TLE update
17 hours ago
Origin
Manufacturer
SpaceX/Seattle
Mission
Operational spacecraft
Bus & Motor
STARLINK V2M, Unknown motor
Mass
730 kg wet, ~700 kg dry
Launch date (UTC)
2024-06-01 (1 year ago)
Launch vehicle
FALCON 9
Launch site
Air Force Eastern Test Range (AFETR)
Object type
Payload
Rocket body
Debris
Shape & HBR
Unknown
Radar Cross Section
Large (>1 m²)

Expand to show TLE details & history

TLE from 17 hours ago
0 STARLINK-31958
1 59924U 24106C   25199.29935175  .00001088  00000-0  33311-4 0  9991
2 59924  43.0008 202.5876 0001193 271.9306  88.1413 15.40697089 64833
Epoch: 2025-07-18T07:11Z
TLE epoch observation values (Epoch: 2025-07-18T07:11:03.991Z)
Latitude
-0.00007°
Longitude
158.4681°
Altitude
443.799 km
Speed
7.648 km/s
True Right ascension
13h 30m 21s
True Declination
0° 00' 00"
Sunlit
Object was in daylight at epoch
Visualization orbit readout
Latitude
-27.1653°
Longitude
7.67888°
Altitude
450.512 km
Speed
7.643 km/s
Apparent Right ascension
02h 08m 30s
Apparent Declination
-35° 10' 28"
Sunlit
Object is in daylight
Visualization observer readout
Local Sidereal Time
12:29:43
Azimuth
275.802° WNW
Elevation
-69.925°
Doppler factor
1
Orbital elements
Apogee altitude
446.821 km
Perigee altitude
445.193 km
Semi-major axis
6,824.144 km
Eccentricity
0.00012
Inclination
43.0008°
RAAN
202.5876°
Arg. of periapsis
271.9306°
True anomaly
88.15496°
Mean anomaly
88.1413°
Eccentric anomaly
88.14813°
Mean motion
3.85009 °/min
Orbital period
93.5 mins
BSTAR
0.000033311
Loading maneuver chart data...
Loading SW <> Apogee altitude chart data...
Loading historical data...
Loading historical data...
Loading historical data...
Loading historical data...
Loading historical data...
Loading historical data...
Loading historical data...
|